Showing default

SNAP-3 ALICE, 40970

Orbit data source: Space-Track

SNAP-3 ALICE, 40970 is a payload satellite owned by SMDC (US) in LEO that was launched on Thu, 08 Oct 2015 UTC via an ATLAS V 401 launch vehicle from the Air Force Western Test Range (AFWTR). Payloads include a variety of satellites, spacecraft, and rockets equipped with specific instruments for various scientific and technological missions. These include communications satellites like Starlink; space stations such as the ISS; scientific satellites like the Hubble; Earth observation satellites from companies like Planet Labs, Umbra, and HawkEye 360; GPS; miniature CubeSats for education and research; and military/defense satellites.

Loading next visibility...
SNAP-3 ALICE details
Identifier
40970, 2015-058G
Orbit
LEO
Last TLE update21 hours ago
Origin
Flag of USSMDC (US)
ManufacturerDuocomm Miltec
MissionOperational Defense Communications
Bus & MotorCUBESAT 3U, Unknown motor
Mass5.3 kg wet, 5.3 kg dry
Launch date (UTC)
2015-10-08 (9 years ago)
Launch vehicle
ATLAS V 401
Launch site
Air Force Western Test Range (AFWTR)
Object type
Payload
Rocket body
Debris
Shape & HBRBox + 8 Pan, 0.5 m
Radar Cross Section0.085 m², Small (<0.1 m²)

Expand to show TLE details & history

TLE from 21 hours ago
0 SNAP-3 ALICE
1 40970U 15058G   24360.59459412  .00045596  00000-0  23815-2 0  9993
2 40970  64.7679  80.6835 0129726 244.7299 114.0333 15.08577655 34523
Epoch: 2024-12-25T14:16Z
Definitive object data (Epoch: 2024-12-25T14:16:12.931Z)
Latitude-0.00009°
Longitude132.04348°
Altitude580.089 km
Speed7.55 km/s
True Right ascension05h 22m 44s
True Declination0° 00' 00"
Sunlit
Object was in full shadow at TLE epoch
Visualization TLE readout
Latitude36.86244°
Longitude149.84124°
Altitude626.743 km
Speed7.504 km/s
Apparent Right ascension02h 59m 07s
Apparent Declination1° 12' 50"
Sunlit
Object is in full shadow
Visualization observer readout
Local Sidereal Time10:29:37
Azimuth285.909° WNW
Elevation-16.343°
Doppler factor1
Orbital elements
Apogee altitude628.836 km
Perigee altitude449.367 km
Semi-major axis6,917.239 km
Eccentricity0.0129726
Inclination64.7679°
RAAN80.6835°
Arg. of periapsis244.7299°
True anomaly115.38195°
Mean anomaly114.0333°
Eccentric anomaly114.70853°
Mean motion3.77263 °/min
BSTAR0.0023815
Orbital period95.42 mins
Loading maneuver chart data...
Loading historical data...
Loading historical data...
Loading historical data...
Loading historical data...
Loading historical data...
Loading historical data...
Loading historical data...

SNAP-3 ALICE Visibility forecast

Observer location: undefined°, undefined

Span
Click to sort rows by Start time (UTC) header in descending order
Start Az.
Max El. time (UTC)
Max El. Az.
Max El.
End time (UTC)
End Az.
4 mins2024-12-26 14:39:19.469Z11.702° NNE2024-12-26 14:41:19.469Z40.151° NE13.458°2024-12-26 14:43:19.469Z69.341° E
6 mins2024-12-26 16:17:19.469Z323.934° NNW2024-12-26 16:20:19.469Z205.876° SW44.118°2024-12-26 16:23:19.469Z155.007° SSE
5 mins2024-12-27 06:11:19.469Z151.649° SSE2024-12-27 06:13:19.469Z115.276° SE22.706°2024-12-27 06:16:19.469Z64.639° ENE
6 mins2024-12-27 07:49:19.469Z258.084° W2024-12-27 07:51:19.469Z302.749° NW30.337°2024-12-27 07:55:19.469Z13.896° NNE
|